Regional Weather Roundup
Issued by NWS

Home | Current Version | Previous Version | Text Only | Print | Product List | Glossary On
Versions: 1 2 3 4 5 6 7 8 9 10 11 12 13 14 15 16 17 18 19 20 21 22 23 24 25 26 27 28 29 30 31 32 33 34 35 36 37 38 39 40 41 42 43 44 45 46 47 48 49 50
000
ASUS42 KTBW 010810
RWRFL
FLORIDA REGIONAL WEATHER ROUNDUP
NATIONAL WEATHER SERVICE TAMPA BAY RUSKIN FL
300 AM EST SUN MAR 01 2015

NOTE: "FAIR" INDICATES FEW OR NO CLOUDS BELOW 12,000 FEET WITH NO
SIGNIFICANT WEATHER AND/OR OBSTRUCTIONS TO VISIBILITY.


FLZ001>010-012>015-112-114-115-010900-
PANHANDLE FLORIDA

CITY           SKY/WX    TMP DP  RH WIND       PRES   REMARKS
PENSACOLA      CLOUDY    50  47  89 E7        30.37F
PENSACOLA NAS  CLOUDY    50  48  93 NE13      30.36F
MILTON NAS     CLOUDY    48  47  96 NE9       30.38F FOG     WCI  44
CRESTVIEW      CLOUDY    47  47 100 NE7       30.40F FOG     WCI  44
DUKE FIELD     CLOUDY    47  46  95 NE6       30.37F WCI  45
VALPARAISO     CLOUDY    49  47  93 E10       30.36F WCI  45
MARY ESTHER    CLOUDY    49  46  86 NE7       30.36F
TRI COUNTY     CLOUDY    46  45  96 NE8       30.42F FOG     WCI  42
PANAMA CITY    CLOUDY    49  47  93 N9        30.37F WCI  45
APALACHICOLA   CLOUDY    51  48  89 NE9       30.36F

STATION/POSITION SKY/WX   TEMP    WIND        PRES    WAVE   SWELL
                          AIR SEA DIR/SP/G            HT/PER HT/PER
                          (F)     (DEG/KT/KT) (MB)    (FT/S) (FT/S)
30.1N   87.6W              56 61   70/ 17/ 21 1026.8F   6/ 7
29.2N   88.2W              65 71   90/ 19/ 21 1026.4F   6/ 8
28.7N   86.0W              62 67   90/ 17/ 21 1026.6F   8/ 7
PANAMA CITY BEAC           49 56   40/ 12/ 17 1028.2R
CAPE SAN BLAS    NOT AVBL
TOWER C                    53      60/ 22/ 25 1027.3F
28.5N   84.5W              60 65   70/ 17/ 21 1025.9F   6/ 6

$$
FLZ011-016>038-118-127-128-134-139-239-010900-
NORTH FLORIDA

CITY           SKY/WX    TMP DP  RH WIND       PRES   REMARKS
MARIANNA       CLOUDY    46  46 100 NE9       30.42S WCI  41
TALLAHASSEE    CLOUDY    49  45  86 NE5       30.40F
PERRY          CLOUDY    47  47  97 NE7       30.40F WCI  44
CROSS CITY       N/A     50  50 100 NE6       30.38F
LAKE CITY      DRIZZLE   46  46 100 NE6       30.40F WCI  43
GAINESVILLE    LGT RAIN  51  51 100 N7        30.38F
MAYPORT NAS    LGT RAIN  51  50  96 N13G21    30.39F FOG
JACKSONVILLE   CLOUDY    51  51 100 N13       30.40F
JAX NAS        LGT RAIN  54  50  86 N14       30.40F FOG
JAX CRAIG      CLOUDY    52  50  93 N9        30.39F
JAX CECIL      CLOUDY    50  50 100 N7        30.40F
FERNANDINA BEA CLOUDY    54  52  94 N10       30.39S
ST AUGUSTINE   LGT RAIN  56  55  97 NW7       30.39F

STATION/POSITION SKY/WX   TEMP    WIND        PRES    WAVE   SWELL
                          AIR SEA DIR/SP/G            HT/PER HT/PER
                          (F)     (DEG/KT/KT) (MB)    (FT/S) (FT/S)
SHELL POINT      NOT AVBL
KEATON BEACH               48      40/ 10/ 13 1028.6F
CEDAR KEY                  53      30/  9/ 11 1028.3F
FERNANDINA                 49 53   20/  9/ 16 1028.9S
30.7N   81.3W                 52                N/A     7/ 7   2/11
MAYPORT                    51 55  360/ 14/ 16 1029.0F
31.4N   80.9W              51 52   30/ 21/ 27 1029.7F   8/ 7
ST AUGUSTINE               54     350/ 10/ 11 1028.8F

$$
FLZ040-043>046-052-053-057-058-063-144-010900-
INTERIOR CENTRAL FLORIDA

CITY           SKY/WX    TMP DP  RH WIND       PRES   REMARKS
OCALA          CLOUDY    55  52  88 NE7       30.36S
THE VILLAGES     N/A     57  57 100 N5        30.25S FOG
LEESBURG       CLOUDY    59  58  96 NE7       30.34F FOG
SANFORD        CLOUDY    64  62  93 NE5       30.33F
ORLANDO EXEC   MOCLDY    64  62  93 NE5       30.33F
ORLANDO INTL   PTCLDY    65  64  97 NE6       30.32F
WINTER HAVEN   CLEAR     66  65  96 E9        30.31F
LAKELAND       CLOUDY    64  63  94 NE3       30.31F
BARTOW         CLOUDY    64  64 100 E9        30.30F
OKEECHOBEE     RAIN      68  68 100 CALM      30.30S

$$
FLZ041-047-054-059-064-141-147-010900-
EAST CENTRAL FLORIDA

CITY           SKY/WX    TMP DP  RH WIND       PRES   REMARKS
DAYTONA BEACH  MOCLDY    61  60  97 NE6       30.35F FOG
DELAND         CLOUDY   N/A N/A N/A N3        30.35F VSB 1
JFK SPACE CTR  CLOUDY    67  63  87 E8        30.31F
CAPE CANAVERAL PTCLDY    68  64  85 E9        30.31F
PATRICK AFB    PTCLDY    68  65  93 E12       30.30F
MELBOURNE      CLOUDY    69  66  90 E14       30.31F
VERO BEACH     MOCLDY    71  65  81 E12       30.29F
FT PIERCE      CLOUDY    71  68  90 E15       30.29S
STUART         LGT RAIN  70  66  88 E13G24    30.29F

STATION/POSITION SKY/WX   TEMP    WIND        PRES    WAVE   SWELL
                          AIR SEA DIR/SP/G            HT/PER HT/PER
                          (F)     (DEG/KT/KT) (MB)    (FT/S) (FT/S)
28.5N   80.2W              71 69   90/ 19/ 23 1026.6F
28.9N   78.5W              71 74   90/ 21/ 25 1027.3F  10/ 9   7/ 9
TRIDENT PIER               66 63   80/  5/  9 1027.2S
28.4N   80.5W                 62                N/A     5/ 8   2/11
27.6N   80.2W                 70                N/A     8/ 8   2/11

$$
FLZ050-056-061-142-242-148-248-149-249-151-251-155-255-
160-260-010900-
WEST CENTRAL FLORIDA

CITY           SKY/WX    TMP DP  RH WIND       PRES   REMARKS
CRYSTAL RIVER  CLOUDY    57  54  88 NE7       30.33F
INVERNESS      CLOUDY    57  50  77 N5        30.35S HAZE
BROOKSVILLE    CLOUDY    63  61  93 NE10      30.32F FOG
ZEPHYRHILLS    FAIR      61  61 100 CALM      30.32F
CLEARWATER     CLOUDY    65  64  97 E6        30.29F
TAMPA INTL     PTCLDY    66  63  90 E5        30.30F
TAMPA EXEC     PTCLDY    66  64  94 E6        30.30F
PLANT CITY     CLOUDY   N/A N/A N/A NE5       30.32F
MACDILL AFB    CLEAR     64  64 100 NE9       30.29F
PETER O KNIGHT CLEAR     68  66  94 E7        30.29F
ST PETERSBURG  CLOUDY    65  63  93 NE9       30.28F
SARASOTA       CLOUDY    67  66  97 E10       30.25F
VENICE         CLOUDY    68  68 100 E10       30.27F

STATION/POSITION SKY/WX   TEMP    WIND        PRES    WAVE   SWELL
                          AIR SEA DIR/SP/G            HT/PER HT/PER
                          (F)     (DEG/KT/KT) (MB)    (FT/S) (FT/S)
CEDAR KEY                  53      30/  9/ 11 1028.3F
28.5N   84.5W              60 65   70/ 17/ 21 1025.9F   6/ 6
27.3N   84.3W                 69                N/A     5/ 5
CLEARWATER BEACH           66 61   70/  8/ 12 1025.8F
MIDDLE TAMPA BAY           65      60/  9/ 10 1026.0F
VENICE                     68 62   70/  7/ 10 1024.4F

$$
FLZ066-069-070-075>078-162-262-165-265-010900-
SOUTHWEST FLORIDA AND KEYS

CITY           SKY/WX    TMP DP  RH WIND       PRES   REMARKS
PUNTA GORDA    CLOUDY    68  67  96 NE8       30.29F
FT MYERS       CLOUDY    69  69 100 NE6       30.25F
SOUTHWEST INTL CLOUDY    70  68  93 NE8       30.26F
NAPLES         CLOUDY    71  70  96 E10       30.24F
MARCO ISLAND   CLOUDY    70  66  88 E8        30.24F
IMMOKALEE      PTSUNNY  N/A N/A N/A E3        30.26F
MARATHON       CLEAR     75  72  90 E13G20    30.21F
KEY WEST NAS   PTCLDY    75  71  87 E14       30.21F
KEY WEST INTL  PTCLDY    75  72  90 E13G18    30.21F

STATION/POSITION SKY/WX   TEMP    WIND        PRES    WAVE   SWELL
                          AIR SEA DIR/SP/G            HT/PER HT/PER
                          (F)     (DEG/KT/KT) (MB)    (FT/S) (FT/S)
VENICE                     68 62   70/  7/ 10 1024.4F
NAPLES                     71 65   60/  5/  9 1024.1S
26.0N   85.6W              74 77   80/ 14/ 17 1023.3F   4/ 7   2/ 7
DRY TORTUGAS               71      60/ 17/ 19 1023.1F
SAND KEY                   74      80/ 15/ 17 1022.9F
SOMBRERO KEY               74      80/ 19/ 21 1023.2F
LONG KEY                   76 77   90/ 17/ 18 1024.3F
MOLASSES REEF              76 76   80/ 16/ 18 1023.1F

$$
FLZ067-068-071>074-168-172>174-010900-
SOUTHEAST FLORIDA

CITY           SKY/WX    TMP DP  RH WIND       PRES   REMARKS
W PALM BEACH   CLOUDY    74  68  81 E14       30.26F
FT LAUDER-EXEC MOCLDY    74  69  85 E12       30.25F
FT LAUDERDALE  PTCLDY    72  70  93 E13       30.24F
POMPANO BEACH  PTCLDY    74  68  81 E16G23    30.25F
PEMBROKE PINES MOCLDY    73  68  84 E12       30.26F
OPA LOCKA      CLOUDY    71  69  93 E10       30.25F
MIAMI          PTCLDY    74  68  81 E13       30.25F
WEST KENDALL   MOCLDY    73  68  84 E15       30.24F
HOMESTEAD      CLEAR     74  68  81 E13G20    30.23F

STATION/POSITION SKY/WX   TEMP    WIND        PRES    WAVE   SWELL
                          AIR SEA DIR/SP/G            HT/PER HT/PER
                          (F)     (DEG/KT/KT) (MB)    (FT/S) (FT/S)
PORT EVERGLADES            74      80/ 11/ 17 1024.2
VIRGINIA KEY               75 74   90/ 17/ 20 1023.6F
LAKE WORTH                 74 73   90/ 17/ 19 1024.4F
SETTLEMENT POINT           73      90/ 16/ 19 1025.4F

$$




USA.gov is the U.S. government's official web portal to all federal, state and local government web resources and services.